| time (UTC) | temp C | wind direction | speed KPH | gust KPH | rain 1hr cm | rain 24hr cm | rain mn cm | humidity % | barometer mb |
| 20260504215023 | 21 | 205 | 4.8 | 17.7 | 0.00 | 0.00 | 0.00 | 36 | 1010.1 |
| 20260504214535 | 21 | 158 | 6.4 | 17.7 | 0.00 | 0.00 | 0.00 | 35 | 1010.0 |
| 20260504214026 | 21 | 238 | 3.2 | 17.7 | 0.00 | 0.00 | 0.00 | 36 | 1010.1 |
| 20260504213525 | 21 | 171 | 4.8 | 17.7 | 0.00 | 0.00 | 0.00 | 37 | 1010.1 |
| 20260504213049 | 21 | 151 | 6.4 | 16.1 | 0.00 | 0.00 | 0.00 | 37 | 1010.1 |
| 20260504212521 | 21 | 220 | 3.2 | 16.1 | 0.00 | 0.00 | 0.00 | 36 | 1010.2 |
| 20260504212025 | 22 | 178 | 3.2 | 20.9 | 0.00 | 0.00 | 0.00 | 36 | 1010.2 |
| 20260504211542 | 21 | 191 | 6.4 | 20.9 | 0.00 | 0.00 | 0.00 | 36 | 1010.3 |
| 20260504211024 | 22 | 213 | 3.2 | 17.7 | 0.00 | 0.00 | 0.00 | 36 | 1010.2 |
| 20260504210523 | 22 | 184 | 3.2 | 17.7 | 0.00 | 0.00 | 0.00 | 37 | 1010.3 |
| 20260504210047 | 22 | 221 | 3.2 | 16.1 | 0.00 | 0.00 | 0.00 | 37 | 1010.2 |
| 20260504205525 | 22 | 168 | 4.8 | 17.7 | 0.00 | 0.00 | 0.00 | 36 | 1010.1 |
| 20260504205027 | 21 | 206 | 4.8 | 19.3 | 0.00 | 0.00 | 0.00 | 35 | 1010.2 |
| 20260504204546 | 21 | 119 | 6.4 | 33.8 | 0.00 | 0.00 | 0.00 | 36 | 1010.3 |
| 20260504204028 | 22 | 226 | 8.0 | 33.8 | 0.00 | 0.00 | 0.00 | 34 | 1010.2 |
| 20260504203524 | 22 | 228 | 6.4 | 25.7 | 0.00 | 0.00 | 0.00 | 35 | 1010.2 |
| 20260504203049 | 22 | 215 | 4.8 | 14.5 | 0.00 | 0.00 | 0.00 | 34 | 1010.1 |
| 20260504202524 | 22 | 216 | 3.2 | 16.1 | 0.00 | 0.00 | 0.00 | 35 | 1010.2 |
| 20260504202025 | 22 | 319 | 6.4 | 17.7 | 0.00 | 0.00 | 0.00 | 35 | 1010.2 |
| 20260504201535 | 22 | 225 | 3.2 | 17.7 | 0.00 | 0.00 | 0.00 | 34 | 1010.2 |
| 20260504201025 | 22 | 194 | 4.8 | 16.1 | 0.00 | 0.00 | 0.00 | 36 | 1010.3 |
| 20260504200525 | 22 | 190 | 6.4 | 17.7 | 0.00 | 0.00 | 0.00 | 35 | 1010.1 |
| 20260504200044 | 22 | 154 | 6.4 | 19.3 | 0.00 | 0.00 | 0.00 | 34 | 1010.1 |
| 20260504195525 | 22 | 192 | 3.2 | 19.3 | 0.00 | 0.00 | 0.00 | 35 | 1010.1 |
| 20260504195021 | 22 | 157 | 4.8 | 19.3 | 0.00 | 0.00 | 0.00 | 35 | 1010.3 |
| 20260504194542 | 22 | 121 | 8.0 | 19.3 | 0.00 | 0.00 | 0.00 | 36 | 1010.3 |
| 20260504194024 | 22 | 192 | 8.0 | 19.3 | 0.00 | 0.00 | 0.00 | 35 | 1010.6 |
| 20260504193526 | 22 | 180 | 6.4 | 19.3 | 0.00 | 0.00 | 0.00 | 36 | 1010.6 |
| 20260504193043 | 22 | 142 | 6.4 | 19.3 | 0.00 | 0.00 | 0.00 | 36 | 1010.7 |
| 20260504192524 | 22 | 302 | 8.0 | 19.3 | 0.00 | 0.00 | 0.00 | 35 | 1010.6 |
| 20260504192024 | 21 | 188 | 8.0 | 19.3 | 0.00 | 0.00 | 0.00 | 35 | 1010.9 |
| 20260504191543 | 21 | 227 | 8.0 | 22.5 | 0.00 | 0.00 | 0.00 | 36 | 1010.9 |
| 20260504191024 | 21 | 138 | 8.0 | 22.5 | 0.00 | 0.00 | 0.00 | 36 | 1011.0 |
| 20260504190524 | 22 | 289 | 3.2 | 17.7 | 0.00 | 0.00 | 0.00 | 38 | 1011.0 |
| 20260504190040 | 21 | 224 | 8.0 | 20.9 | 0.00 | 0.00 | 0.00 | 35 | 1011.0 |
| 20260504185525 | 21 | 211 | 3.2 | 20.9 | 0.00 | 0.00 | 0.00 | 38 | 1011.1 |
| 20260504185021 | 21 | 182 | 9.7 | 19.3 | 0.00 | 0.00 | 0.00 | 36 | 1011.0 |
| 20260504184536 | 21 | 205 | 8.0 | 20.9 | 0.00 | 0.00 | 0.00 | 36 | 1011.2 |
| 20260504184022 | 21 | 142 | 8.0 | 20.9 | 0.00 | 0.00 | 0.00 | 36 | 1011.3 |
| 20260504183522 | 21 | 229 | 3.2 | 17.7 | 0.00 | 0.00 | 0.00 | 40 | 1011.4 |
| 20260504183043 | 21 | 242 | 8.0 | 19.3 | 0.00 | 0.00 | 0.00 | 36 | 1011.5 |
| 20260504182524 | 21 | 187 | 6.4 | 22.5 | 0.00 | 0.00 | 0.00 | 39 | 1011.4 |
| 20260504182025 | 21 | 127 | 6.4 | 22.5 | 0.00 | 0.00 | 0.00 | 37 | 1011.5 |
| 20260504181546 | 21 | 242 | 6.4 | 22.5 | 0.00 | 0.00 | 0.00 | 38 | 1011.6 |
| 20260504181024 | 21 | 192 | 4.8 | 19.3 | 0.00 | 0.00 | 0.00 | 37 | 1011.7 |
| 20260504180526 | 21 | 206 | 3.2 | 20.9 | 0.00 | 0.00 | 0.00 | 39 | 1011.7 |
| 20260504180043 | 21 | 244 | 8.0 | 20.9 | 0.00 | 0.00 | 0.00 | 43 | 1011.7 |
| 20260504175523 | 21 | 204 | 6.4 | 17.7 | 0.00 | 0.00 | 0.00 | 43 | 1011.9 |
| 20260504175022 | 21 | 247 | 8.0 | 17.7 | 0.00 | 0.00 | 0.00 | 41 | 1012.0 |
| 20260504174535 | 21 | 225 | 6.4 | 19.3 | 0.00 | 0.00 | 0.00 | 39 | 1012.2 |
| 20260504174022 | 20 | 252 | 8.0 | 32.2 | 0.00 | 0.00 | 0.00 | 39 | 1012.1 |
| 20260504173522 | 20 | 186 | 8.0 | 32.2 | 0.00 | 0.00 | 0.00 | 40 | 1012.1 |
| 20260504173036 | 21 | 178 | 9.7 | 19.3 | 0.00 | 0.00 | 0.00 | 40 | 1012.2 |
| 20260504172521 | 21 | 141 | 4.8 | 16.1 | 0.00 | 0.00 | 0.00 | 40 | 1012.1 |
| 20260504172021 | 20 | 194 | 4.8 | 16.1 | 0.00 | 0.00 | 0.00 | 43 | 1012.3 |
| 20260504171548 | 20 | 317 | 4.8 | 17.7 | 0.00 | 0.00 | 0.00 | 42 | 1012.2 |
| 20260504171023 | 20 | 0 | 4.8 | 17.7 | 0.00 | 0.00 | 0.00 | 42 | 1012.4 |
| 20260504170522 | 20 | 161 | 9.7 | 25.7 | 0.00 | 0.00 | 0.00 | 39 | 1012.5 |
| 20260504151021 | 17 | 190 | 3.2 | 14.5 | 0.00 | 0.00 | 0.00 | 51 | 1014.0 |
| 20260504150521 | 17 | 241 | 4.8 | 14.5 | 0.00 | 0.00 | 0.00 | 50 | 1013.9 |
| 20260504141024 | 16 | 180 | 6.4 | 17.7 | 0.00 | 0.00 | 0.00 | 54 | 1014.2 |
| 20260504140521 | 16 | 232 | 6.4 | 17.7 | 0.00 | 0.00 | 0.00 | 54 | 1014.2 |
| 20260504130522 | 14 | 251 | 8.0 | 17.7 | 0.00 | 0.00 | 0.00 | 58 | 1014.6 |
| 20260504110525 | 10 | 171 | 3.2 | 17.7 | 0.00 | 0.00 | 0.00 | 76 | 1015.4 |
| 20260504100521 | 8 | 187 | 3.2 | 11.3 | 0.00 | 0.00 | 0.00 | 74 | 1015.2 |
| 20260504081538 | 5 | 0 | 0.0 | 0.0 | 0.00 | 0.00 | 0.00 | 75 | 1015.0 |
| 20260504081022 | 6 | 0 | 0.0 | 0.0 | 0.00 | 0.00 | 0.00 | 74 | 1015.0 |
| 20260504080522 | 6 | 0 | 0.0 | 0.0 | 0.00 | 0.00 | 0.00 | 73 | 1015.0 |
| 20260504050524 | 8 | 0 | 0.0 | 0.0 | 0.00 | 0.00 | 0.00 | 61 | 1014.5 |
| 20260504045521 | 8 | 0 | 0.0 | 0.0 | 0.00 | 0.00 | 0.00 | 61 | 1014.5 |
| 20260504045023 | 8 | 0 | 0.0 | 0.0 | 0.00 | 0.00 | 0.00 | 60 | 1014.5 |
| 20260504044543 | 8 | 0 | 0.0 | 0.0 | 0.00 | 0.00 | 0.00 | 59 | 1014.5 |
| 20260504044021 | 8 | 0 | 0.0 | 1.6 | 0.00 | 0.00 | 0.00 | 59 | 1014.4 |
| 20260504043521 | 8 | 0 | 0.0 | 1.6 | 0.00 | 0.00 | 0.00 | 59 | 1014.4 |
| 20260504043036 | 9 | 0 | 0.0 | 0.0 | 0.00 | 0.00 | 0.00 | 58 | 1014.3 |
| 20260504042525 | 9 | 0 | 0.0 | 0.0 | 0.00 | 0.00 | 0.00 | 58 | 1014.3 |
| 20260504042024 | 9 | 0 | 0.0 | 0.0 | 0.00 | 0.00 | 0.00 | 58 | 1014.3 |
| 20260504041546 | 9 | 0 | 0.0 | 0.0 | 0.00 | 0.00 | 0.00 | 58 | 1014.2 |
| 20260504041021 | 9 | 0 | 0.0 | 0.0 | 0.00 | 0.00 | 0.00 | 57 | 1014.2 |
| 20260504040521 | 10 | 0 | 0.0 | 0.0 | 0.00 | 0.00 | 0.00 | 57 | 1014.0 |
| 20260504040103 | 10 | 0 | 0.0 | 1.6 | 0.00 | 0.00 | 0.00 | 56 | 1014.1 |
| 20260504035521 | 10 | 0 | 0.0 | 1.6 | 0.00 | 0.00 | 0.00 | 56 | 1013.9 |
| 20260504035026 | 10 | 0 | 0.0 | 1.6 | 0.00 | 0.00 | 0.00 | 55 | 1013.9 |
| 20260504034546 | 10 | 0 | 0.0 | 3.2 | 0.00 | 0.00 | 0.00 | 54 | 1013.9 |
| 20260504034021 | 10 | 0 | 0.0 | 3.2 | 0.00 | 0.00 | 0.00 | 54 | 1013.8 |
| 20260504033524 | 10 | 0 | 0.0 | 0.0 | 0.00 | 0.00 | 0.00 | 54 | 1013.8 |
| 20260504033037 | 10 | 0 | 0.0 | 0.0 | 0.00 | 0.00 | 0.00 | 53 | 1013.9 |
| 20260504032525 | 10 | 0 | 0.0 | 1.6 | 0.00 | 0.00 | 0.00 | 52 | 1013.9 |
| 20260504032028 | 10 | 0 | 0.0 | 4.8 | 0.00 | 0.00 | 0.00 | 51 | 1013.8 |
| 20260504031536 | 10 | 0 | 0.0 | 6.4 | 0.00 | 0.00 | 0.00 | 51 | 1013.8 |
| 20260504031024 | 10 | 166 | 0.0 | 6.4 | 0.00 | 0.00 | 0.00 | 51 | 1013.9 |
| 20260504030524 | 10 | 149 | 0.0 | 3.2 | 0.00 | 0.00 | 0.00 | 51 | 1013.7 |
| 20260504030042 | 11 | 0 | 0.0 | 3.2 | 0.00 | 0.00 | 0.00 | 50 | 1013.9 |
| 20260504025521 | 11 | 191 | 0.0 | 3.2 | 0.00 | 0.00 | 0.00 | 50 | 1013.7 |
| 20260504025021 | 11 | 0 | 0.0 | 8.0 | 0.00 | 0.00 | 0.00 | 50 | 1013.9 |
| 20260504024540 | 11 | 0 | 0.0 | 8.0 | 0.00 | 0.00 | 0.00 | 51 | 1013.7 |
| 20260504024025 | 10 | 211 | 0.0 | 8.0 | 0.00 | 0.00 | 0.00 | 50 | 1013.8 |
| 20260504023525 | 10 | 0 | 0.0 | 1.6 | 0.00 | 0.00 | 0.00 | 50 | 1013.8 |
| 20260504023040 | 10 | 0 | 0.0 | 1.6 | 0.00 | 0.00 | 0.00 | 50 | 1013.8 |
| 20260504022525 | 11 | 0 | 0.0 | 6.4 | 0.00 | 0.00 | 0.00 | 50 | 1013.8 |
| 20260504022025 | 11 | 0 | 0.0 | 6.4 | 0.00 | 0.00 | 0.00 | 49 | 1013.8 |
| 20260504021535 | 11 | 0 | 0.0 | 4.8 | 0.00 | 0.00 | 0.00 | 49 | 1013.8 |
| 20260504021024 | 11 | 0 | 0.0 | 4.8 | 0.00 | 0.00 | 0.00 | 49 | 1013.7 |
| 20260504020525 | 11 | 0 | 0.0 | 4.8 | 0.00 | 0.00 | 0.00 | 49 | 1013.7 |
| 20260504020042 | 11 | 0 | 0.0 | 1.6 | 0.00 | 0.00 | 0.00 | 50 | 1013.7 |
| 20260504015525 | 11 | 0 | 0.0 | 1.6 | 0.00 | 0.00 | 0.00 | 49 | 1013.8 |
| 20260504015025 | 11 | 0 | 0.0 | 1.6 | 0.00 | 0.00 | 0.00 | 49 | 1013.7 |
| 20260504014542 | 11 | 0 | 0.0 | 0.0 | 0.00 | 0.00 | 0.00 | 49 | 1013.7 |
| 20260504014021 | 11 | 0 | 0.0 | 0.0 | 0.00 | 0.00 | 0.00 | 49 | 1013.7 |
| 20260504013521 | 11 | 0 | 0.0 | 0.0 | 0.00 | 0.00 | 0.00 | 49 | 1013.6 |
| 20260504013046 | 11 | 0 | 0.0 | 0.0 | 0.00 | 0.00 | 0.00 | 48 | 1013.6 |
| 20260504012525 | 11 | 0 | 0.0 | 0.0 | 0.00 | 0.00 | 0.00 | 47 | 1013.6 |
| 20260504012022 | 11 | 0 | 0.0 | 0.0 | 0.00 | 0.00 | 0.00 | 47 | 1013.6 |
| 20260504011541 | 11 | 0 | 0.0 | 0.0 | 0.00 | 0.00 | 0.00 | 47 | 1013.5 |
| 20260504011021 | 11 | 0 | 0.0 | 1.6 | 0.00 | 0.00 | 0.00 | 45 | 1013.4 |
| 20260504010524 | 12 | 0 | 0.0 | 1.6 | 0.00 | 0.00 | 0.00 | 44 | 1013.2 |
| 20260504010037 | 12 | 0 | 0.0 | 1.6 | 0.00 | 0.00 | 0.00 | 44 | 1013.2 |
| 20260504005521 | 12 | 0 | 0.0 | 1.6 | 0.00 | 0.00 | 0.00 | 43 | 1013.1 |
| 20260504005025 | 12 | 0 | 0.0 | 1.6 | 0.00 | 0.00 | 0.00 | 44 | 1013.1 |
| 20260504004537 | 12 | 0 | 0.0 | 3.2 | 0.00 | 0.00 | 0.00 | 43 | 1013.0 |
| 20260504004025 | 12 | 0 | 0.0 | 3.2 | 0.00 | 0.00 | 0.00 | 42 | 1012.9 |
| 20260504003524 | 12 | 0 | 0.0 | 3.2 | 0.00 | 0.00 | 0.00 | 40 | 1012.9 |
| 20260504003036 | 12 | 0 | 0.0 | 0.0 | 0.00 | 0.00 | 0.00 | 41 | 1012.8 |
| 20260504002525 | 12 | 0 | 0.0 | 0.0 | 0.00 | 0.00 | 0.00 | 41 | 1012.7 |
| 20260504002024 | 13 | 0 | 0.0 | 1.6 | 0.00 | 0.00 | 0.00 | 40 | 1012.7 |
| 20260504001536 | 13 | 0 | 0.0 | 4.8 | 0.00 | 0.00 | 0.00 | 38 | 1012.7 |
| 20260504001024 | 13 | 0 | 0.0 | 4.8 | 0.00 | 0.00 | 0.00 | 39 | 1012.6 |
| 20260504000525 | 13 | 0 | 0.0 | 4.8 | 0.00 | 0.00 | 0.00 | 38 | 1012.4 |
| 20260504000042 | 13 | 0 | 0.0 | 9.7 | 0.00 | 0.00 | 0.00 | 38 | 1012.5 |
| 20260503235521 | 13 | 0 | 1.6 | 11.3 | 0.00 | 0.00 | 0.00 | 37 | 1012.5 |
| 20260503235024 | 14 | 286 | 3.2 | 11.3 | 0.00 | 0.00 | 0.00 | 35 | 1012.4 |
| 20260503234537 | 14 | 290 | 1.6 | 16.1 | 0.00 | 0.00 | 0.00 | 35 | 1012.4 |
| 20260503234022 | 14 | 308 | 3.2 | 16.1 | 0.00 | 0.00 | 0.00 | 35 | 1012.3 |
| 20260503233521 | 14 | 267 | 4.8 | 12.9 | 0.00 | 0.00 | 0.00 | 35 | 1012.2 |
| 20260503233039 | 14 | 300 | 3.2 | 14.5 | 0.00 | 0.00 | 0.00 | 35 | 1012.1 |
| 20260503232525 | 15 | 322 | 3.2 | 14.5 | 0.00 | 0.00 | 0.00 | 35 | 1012.1 |
| 20260503232024 | 15 | 0 | 3.2 | 17.7 | 0.00 | 0.00 | 0.00 | 34 | 1012.1 |
| 20260503231536 | 15 | 302 | 4.8 | 17.7 | 0.00 | 0.00 | 0.00 | 33 | 1012.2 |
| 20260503231026 | 15 | 240 | 6.4 | 17.7 | 0.00 | 0.00 | 0.00 | 33 | 1012.1 |
| 20260503230527 | 15 | 294 | 3.2 | 17.7 | 0.00 | 0.00 | 0.00 | 33 | 1012.0 |
| 20260503230042 | 15 | 286 | 6.4 | 17.7 | 0.00 | 0.00 | 0.00 | 32 | 1012.1 |
| 20260503225524 | 15 | 0 | 4.8 | 19.3 | 0.00 | 0.00 | 0.00 | 33 | 1012.0 |
| 20260503225024 | 15 | 284 | 4.8 | 19.3 | 0.00 | 0.00 | 0.00 | 32 | 1012.0 |
| 20260503224538 | 15 | 280 | 6.4 | 19.3 | 0.00 | 0.00 | 0.00 | 33 | 1012.0 |
| 20260503224022 | 15 | 277 | 3.2 | 17.7 | 0.00 | 0.00 | 0.00 | 32 | 1011.9 |
| 20260503223524 | 15 | 294 | 4.8 | 17.7 | 0.00 | 0.00 | 0.00 | 31 | 1011.9 |
| 20260503223040 | 15 | 281 | 6.4 | 20.9 | 0.00 | 0.00 | 0.00 | 32 | 1011.8 |
| 20260503222523 | 15 | 296 | 8.0 | 20.9 | 0.00 | 0.00 | 0.00 | 32 | 1011.9 |
| 20260503222023 | 15 | 245 | 8.0 | 20.9 | 0.00 | 0.00 | 0.00 | 32 | 1011.9 |
| 20260503221543 | 15 | 298 | 4.8 | 22.5 | 0.00 | 0.00 | 0.00 | 33 | 1011.8 |
| 20260503221026 | 15 | 0 | 3.2 | 22.5 | 0.00 | 0.00 | 0.00 | 33 | 1011.9 |
| 20260503220522 | 15 | 253 | 9.7 | 22.5 | 0.00 | 0.00 | 0.00 | 32 | 1012.0 |
| 20260503220036 | 15 | 244 | 9.7 | 22.5 | 0.00 | 0.00 | 0.00 | 33 | 1012.0 |
| 20260503215524 | 15 | 323 | 9.7 | 22.5 | 0.00 | 0.00 | 0.00 | 32 | 1012.0 |